sat.trackr.live / text

‹ back to catalog

RASSVET-3 11

NORAD 68370 · 2026-061L

PAYLOAD ACTIVE UNKNOWN

§ Identity

Operator
Country
CIS
Launch date
2026-03-23
Launch site
PLMSC
Launch vehicle
Mass (kg)
RCS (m²)

External: N2YO · Heavens-Above · Gunter

§ Orbital elements

Epoch: 2026-09-17T23:31:24.991968Z

Period
92.02 min
Inclination
82.2868°
Eccentricity
0.0004801
Mean motion
15.64860983 rev/d
Perigee alt
370.4 km
Apogee alt
376.9 km
Semi-major
6,751.8 km
B*
2.8696e-4
RAAN
270.0425°
Arg perigee
165.4135°
Mean anomaly
194.7263°
Rev number
2,811

§ Raw data

RASSVET-3 111 68370U 26061L   26260.98015037  .00028074  00000+0  28696-3 0  99922 68370  82.2868 270.0425 0004801 165.4135 194.7263 15.64860983 28112

JSON: /api/v1/satellites/68370 · /tle

For live sub-satellite position, see the globe view (requires WebGL).

§ Visibility from observer

Set your observer location to see the next 7 days of passes ≥ 10°. The values pass through the URL so the page stays shareable.

No JS? Fill the form by hand. The geolocation button needs JavaScript.